Location: Cul de Sac
(50.3167°N, 3.9167°E)
Time: 06:36:29
(UTC+00:00)

Daily predictions for brighter satellites

Satellite Brightness Start Highest point End
(mag) Time Altitude Azimuth Time Altitude Azimuth Time Altitude Azimuth
Cosmos 304 Rocket 3.8 16:40:07 10° NNW 16:44:55 89° WSW 16:49:39 10° SSE
USA 229 DEB 4.4 16:44:22 10° W 16:50:17 43° NNW 16:56:59 10° NE
USA 229 4.4 16:44:26 10° W 16:50:22 43° NNW 16:57:04 10° NE
Cosmos 1758 3.4 16:47:57 10° NNW 16:51:36 71° W 16:55:14 10° S
ISS -1.3 16:51:13 10° SE 16:51:50 10° SE 16:52:27 10° SE
Cosmos 2154 Rocket 4.4 16:47:32 10° NNW 16:53:44 69° W 16:59:51 10° S
IGS 5A 4.0 16:52:06 10° S 16:56:01 60° W 16:59:58 10° NNW
Cosmos 2366 rocket 4.3 16:50:30 10° N 16:56:38 48° ENE 17:02:45 10° SSE
Cosmos 332 Rocket 4.3 16:52:32 10° NNW 16:57:00 37° ENE 17:01:26 10° SE
Cosmos 2369 Rocket 2.8 16:51:29 10° NNW 16:57:09 66° WSW 17:02:46 10° SSE
Cosmos 2056 Rocket 3.7 16:52:51 10° S 16:57:49 53° ESE 17:02:47 10° NNE
Cosmos 2218 Rocket 4.3 16:53:18 10° N 16:59:29 47° ENE 17:05:37 10° SE
MOS 1 Rocket 3.5 16:54:46 10° SSE 16:59:59 66° ENE 17:05:01 10° N
Cosmos 1151 Rocket 3.8 16:56:54 10° SSW 17:01:03 53° WNW 17:05:14 10° N
Cosmos 2327 Rocket 4.5 16:56:20 10° N 17:02:39 74° ENE 17:08:49 10° SSE
ARIANE 5 R/B 2.5 16:58:34 10° SSE 17:03:43 66° ENE 17:08:54 10° N
Cosmos 1271 Rocket 4.2 17:01:34 10° SW 17:04:46 33° WNW 17:08:00 10° N
Cosmos 1943 3.5 17:00:25 10° S 17:05:50 51° ESE 17:11:18 10° NE
CZ-2D R/B 4.4 17:03:49 10° ESE 17:06:51 23° ENE 17:09:53 10° NNE
Cosmos 2297 4.4 17:01:28 10° NW 17:07:01 59° WSW 17:12:33 10° S
Meteor 1-28 Rocket 3.1 17:06:33 10° N 17:09:51 71° WNW 17:13:06 10° SSW
SL-24 R/B - RUBIN 2 4.2 17:06:17 10° NNW 17:10:20 34° NE 17:14:21 10° ESE
UNK 3.6 17:06:39 10° NNE 17:11:11 71° ESE 17:15:40 10° S
Cosmos 1633 Rocket 2.9 17:08:06 10° N 17:12:26 73° E 17:16:44 10° SSE
Cosmos 1954 Rocket 4.5 17:07:57 10° NNW 17:13:08 67° WSW 17:18:18 10° S
Landsat 7 3.8 17:08:28 10° SSE 17:13:08 87° WSW 17:17:49 10° NNW
Cosmos 2341 Rocket 4.0 17:07:15 10° N 17:13:36 66° ENE 17:19:50 10° SSE
USA 32 4.1 17:09:13 10° N 17:14:29 87° W 17:19:43 10° S
USA 238 DEB 3.9 17:09:39 10° NW 17:16:56 74° NE 17:24:56 10° SE
USA 238 3.9 17:09:46 10° NW 17:17:03 73° NE 17:25:02 10° SE
SMAP 3.5 17:15:07 10° S 17:19:44 66° WSW 17:24:24 10° NNW
COSMO-SKYMED 1 3.8 17:18:21 14° NE 17:20:24 20° E 17:23:28 10° SE
USA 276 4.1 17:20:08 10° SSE 17:20:30 10° SE 17:20:52 10° SE
Radarsat Rocket 4.4 17:15:05 10° SE 17:20:48 40° ENE 17:26:12 10° N
Cosmos 1666 Rocket 3.8 17:16:39 10° NNW 17:21:06 78° W 17:25:32 10° S
Cosmos 2237 Rocket 4.0 17:18:42 10° W 17:23:09 23° NW 17:27:38 10° NNE
Resurs 1-3 4.1 17:19:16 10° SE 17:23:11 36° ENE 17:27:08 10° N
USA 267 3.4 17:17:29 10° E 17:23:47 58° NNE 17:30:11 10° WNW
Cosmos 968 Rocket 3.4 17:19:17 10° NNW 17:24:26 67° ENE 17:29:31 10° SSE
Cosmos 1959 Rocket 4.4 17:19:27 10° N 17:25:33 65° ENE 17:31:39 10° SSE
Cosmos 1371 Rocket 4.0 17:20:57 10° SSW 17:26:14 85° ESE 17:31:31 10° NNE
SL-16 R/B 2.9 17:20:49 10° SW 17:26:20 52° NW 17:31:53 10° NNE
IRS-1C 4.2 17:22:16 10° SSE 17:27:35 84° WSW 17:32:57 10° NNW
SAR-Lupe-1 3.9 17:26:05 10° SSE 17:29:36 68° ENE 17:33:10 10° N
SL-4 R/B 4.5 17:28:27 10° W 17:31:30 21° SW 17:34:28 10° S
Cosmos 1328 Rocket 3.6 17:27:20 10° S 17:31:42 85° WNW 17:36:07 10° N
Cosmos 1624 Rocket 4.1 17:28:19 10° SSW 17:33:36 85° WNW 17:38:56 10° NNE
Cosmos 1741 Rocket 4.0 17:28:50 10° NNW 17:34:01 58° ENE 17:39:08 10° SE
Meteor 1-23 Rocket 4.3 17:28:51 10° S 17:34:22 57° E 17:39:53 10° NNE
SJ-12 4.0 17:31:28 10° S 17:35:16 71° WSW 17:39:06 10° NNW
BREEZE-M DEB (TANK) 3.2 17:30:17 10° W 17:35:51 80° S 17:38:13 21° E
Cosmos 1331 Rocket 4.3 17:32:06 10° S 17:36:55 43° ESE 17:40:43 16° NE
SKYMED 2 3.9 17:32:46 10° NNE 17:36:58 45° E 17:41:08 10° S
SPOT 1/Viking Rocket 3.4 17:34:53 10° SSE 17:40:02 79° ENE 17:45:12 10° NNW
Cosmos 1850 Rocket 3.9 17:36:38 10° NNW 17:41:56 70° ENE 17:47:14 10° SSE
AQUARIUS 4.5 17:37:38 10° S 17:42:01 68° WSW 17:46:26 10° NNW
Meteor 1-21 4.2 17:39:29 10° S 17:44:59 62° E 17:50:31 10° NNE
Meteor 1-16 Rocket 4.0 17:40:49 10° N 17:46:09 72° ENE 17:51:30 10° SSE
SAR-Lupe-4 3.7 17:42:40 10° S 17:46:14 75° WSW 17:49:51 10° NNW
SL-8 Rocket 4.2 17:41:52 10° NNW 17:48:05 74° W 17:54:13 10° S
SJ-7 4.3 17:46:55 10° SSE 17:50:35 50° ENE 17:54:17 10° N
Cosmos 1110 Rocket 4.0 17:47:56 10° S 17:53:04 62° ESE 17:56:56 18° NNE
Cosmos 1656 3.7 17:47:51 10° NNW 17:53:24 53° NE 17:58:48 10° SE
Cosmos 1515 Rocket 3.4 17:51:02 10° S 17:55:26 73° E 17:59:52 10° NNE
SJ 16-02 4.0 17:53:05 10° NW 17:56:22 22° W 17:59:38 10° SSW
YAOGAN 1 2.4 17:52:57 10° SSE 17:57:11 74° ENE 18:01:27 10° N
Meteor 1-12 Rocket 4.1 17:51:35 10° N 17:57:17 79° ENE 18:02:55 10° SSE
COSMOS 2455 3.8 17:52:27 10° NNW 17:57:32 27° NNE 17:59:04 24° NE
NOAA 6 4.1 17:52:37 10° SE 17:57:33 54° ENE 18:02:32 10° N
Resurs 01 Rocket 2.0 17:56:23 17° SE 17:59:13 37° ENE 18:03:16 10° N
Cosmos 1980 Rocket 3.7 17:55:42 10° N 17:59:27 18° NNE 17:59:30 18° NE
NOSS 3-4 (A) 3.2 17:54:29 10° SSW 17:59:40 60° SE 18:02:41 27° NE
NOSS 3-4 (C) 3.2 17:54:37 10° SSW 17:59:49 59° SE 18:02:51 27° ENE
Cosmos 292 Rocket 3.6 17:55:07 10° NNW 17:59:49 66° ENE 18:04:29 10° SSE
PSLV R/B 3.4 17:58:12 10° SSE 18:02:17 61° ENE 18:06:25 10° N
Meteor 2-15 4.4 17:56:14 10° N 18:02:26 83° ENE 18:08:33 10° SSE
Cosmos 1953 3.0 17:58:52 10° NNW 18:02:28 50° W 18:06:03 10° S
Cosmos 1340 Rocket 2.6 17:59:17 10° N 18:03:04 58° ENE 18:06:50 10° SSE
Okean 3 3.9 17:59:37 10° SSE 18:03:07 37° ESE 18:03:07 37° ESE
Cosmos 1452 Rocket 3.6 17:58:23 10° S 18:03:29 55° ESE 18:06:22 25° NE
Cosmos 1703 3.0 18:00:27 10° SSW 18:03:45 71° W 18:06:05 18° N
BREEZE-M (TANK) 2.3 18:02:45 10° SW 18:04:33 39° S 18:04:33 39° S
ATLAS 3B R/B 4.1 18:03:38 10° WNW 18:10:35 33° NNW 18:15:25 18° NE
Cosmos 1821 Rocket 4.1 18:06:09 10° NNW 18:12:24 80° W 18:18:31 10° S
ATLAS 5 CENTAUR R/B 1.7 18:12:31 10° WSW 18:15:22 38° NW 18:15:58 34° N
Spot 4 Rocket 4.1 18:16:52 10° S 18:21:59 77° WSW 18:27:08 10° NNW
Cosmos 1933 Rocket 3.7 18:18:31 10° NNW 18:22:56 71° W 18:27:16 10° S
SL-08 R/B 4.5 18:16:34 10° N 18:23:00 67° ENE 18:29:25 10° SSE
SL-16 R/B 4.4 18:19:06 10° N 18:24:01 26° NW 18:28:56 10° WSW
Cosmos 1697 Rocket 3.2 18:19:50 10° NNW 18:25:08 39° NE 18:25:14 38° NE
Cosmos 1603 3.6 18:20:19 10° SSW 18:25:59 86° WNW 18:29:14 27° NNE
Cosmos 2181 Rocket 4.2 18:19:54 10° SSW 18:26:02 72° WNW 18:32:17 10° N
SL-16 R/B 4.3 18:24:49 10° N 18:26:21 11° NNE 18:26:21 11° NNE
BREEZE-M DEB (TANK) 3.3 18:24:57 10° SW 18:27:39 48° SSE 18:27:50 47° SE
ISS -2.7 18:24:45 10° SW 18:27:15 38° S 18:27:15 38° S
Cosmos 1339 Rocket 4.5 18:23:29 10° SSE 18:29:29 54° E 18:34:24 15° NNE
USA 215 3.4 18:29:08 38° E 18:31:21 54° SE 18:37:43 10° SW
NOSS 3-1 (C) 4.1 18:25:40 10° NW 18:32:01 49° NE 18:34:15 39° ENE
USA 59 Rocket 1.1 18:30:53 10° NNW 18:32:24 25° NNW 18:32:24 25° NNW
Cosmos 1833 Rocket 4.2 18:31:51 10° SSE 18:34:06 21° SSE 18:34:06 21° SSE
Okean 2 3.5 18:32:59 10° SSW 18:36:50 65° WNW 18:37:47 46° NNW
RESURS DK-1 3.2 18:39:44 10° SSW 18:42:20 39° S 18:42:20 39° S
Cosmos 1869 Rocket 4.2 18:45:11 10° NNW 18:49:29 54° W 18:53:45 10° S
DNEPR-1 R/B 3.6 18:46:57 10° SW 18:51:03 73° W 18:51:03 73° W
Meteor 2-8 Rocket 4.4 18:46:06 10° NNW 18:52:18 85° W 18:58:27 10° S
CARTOSAT-1 4.3 18:51:31 10° S 18:55:36 50° W 18:59:44 10° NNW
COSMO-SKYMED 1 3.4 18:54:39 34° NNW 18:55:56 46° WNW 18:59:52 10° SW
Cosmos 1934 Rocket 3.8 18:50:57 10° N 18:57:07 86° E 19:03:19 10° S
Cosmos 2360 4.4 18:53:34 10° NNW 18:59:16 69° WSW 19:02:09 30° S
Cosmos 2333 Rocket 4.4 19:03:15 10° N 19:04:36 13° N 19:04:36 13° N
USA 267 3.3 19:04:50 50° SE 19:06:43 76° SW 19:13:17 10° WNW
Nadezhda 3 Rocket 4.4 19:07:59 10° SSW 19:14:01 60° WNW 19:20:08 10° N
BREEZE-M DEB (TANK) 3.6 19:16:30 10° WSW 19:20:29 81° SSE 19:21:09 72° ESE
Resurs 01 Rocket 3.5 19:33:43 20° SW 19:35:40 28° W 19:39:27 10° NW
COSMOS 2455 3.7 19:38:14 10° NW 19:42:13 44° NNW 19:42:13 44° NNW
Cosmos 1980 Rocket 3.8 19:39:00 10° NNW 19:41:15 25° NNW 19:41:15 25° NNW
NOSS 3-4 (A) 4.4 19:45:41 10° W 19:50:09 38° NW 19:50:09 38° NW
NOSS 3-4 (C) 4.4 19:45:47 10° W 19:50:18 38° NW 19:50:18 38° NW
ATLAS 3B R/B 4.1 19:56:36 10° NW 20:02:39 32° N 20:02:39 32° N
Cosmos 1697 Rocket 4.3 20:03:49 10° NW 20:06:59 31° WNW 20:06:59 31° WNW
USA 215 4.0 20:16:30 47° W 20:16:30 47° W 20:21:02 10° WSW
